Flag for U.S.A. Weather past 2 weeks in Minot, North Dakota, U.S.A.

Now
59 °F

Clear.


Feels Like: 60 °F
Forecast: 62 / 77 °F
Wind: 3 mph from West

Location: Minot International Airport

Current Time: Jul 22, 2014 at 7:23:48 AM

Latest Report: Jul 22, 2014 at 6:54 AM


Visibility: 7 mi

Pressure: 30.11 "Hg

Humidity: 93%

Dew point: 57 °F

Location of MinotLocation

Historic Weather in Minot — Graph

°F

Minot temperature yesterday

Maximum temperature yesterday: 76 °F (at 1:54 PM)
Minimum temperature yesterday: 62 °F (at 5:54 AM)
Average temperature yesterday: 68 °F

Past Weeks' High & Low Weather Summary

 TemperatureHumidityPressure
High90 °F (Jul 20, 1:54 PM)100% (Jul 16, 9:54 AM)30.32 "Hg (Jul 16, 9:54 AM)
Low49 °F (Jul 15, 5:54 AM)28% (Jul 20, 1:54 PM)29.55 "Hg (Jul 20, 3:54 AM)
Average68 °F65%29.92 "Hg
* Reported Jul 7 5:54 AM — Jul 22 5:54 AM, Minot, Weather by CustomWeather, © 2014

Note: Actual official high and low records may vary slightly from our data, if they occured in-between our weather recording intervals... More about our weather records

Advertising

Minot weather history for July 8, 2014

 ConditionsComfort  
Time TempWeatherWind HumidityBarometerVisibility
12:54 AM
Jul 8
61 °FClear.13 mph78%29.90 "Hg10 mi
1:54 AM61 °FClear.15 mph78%29.90 "Hg10 mi
2:54 AM61 °FClear.13 mph78%29.91 "Hg10 mi
3:54 AM60 °FClear.13 mph80%29.91 "Hg10 mi
4:54 AM59 °FClear.14 mph84%29.93 "Hg10 mi
5:54 AM58 °FClear.13 mph87%29.95 "Hg10 mi
6:54 AM59 °FSunny.12 mph84%29.96 "Hg10 mi
7:54 AM60 °FSunny.14 mph80%29.98 "Hg10 mi
8:54 AM63 °FSunny.14 mph73%29.99 "Hg10 mi
9:54 AM65 °FSunny.13 mph73%30.00 "Hg10 mi
10:54 AM67 °FSunny.9 mph68%30.00 "Hg10 mi
11:54 AM69 °FSunny.12 mph66%30.01 "Hg10 mi
12:54 PM71 °FSunny.10 mph61%30.01 "Hg10 mi
1:54 PM73 °FPassing clouds.13 mph55%30.00 "Hg10 mi
2:54 PM74 °FScattered clouds.14 mph53%29.99 "Hg9 mi
3:54 PM74 °FSunny.14 mph53%29.99 "Hg8 mi
4:54 PM74 °FScattered clouds.16 mph53%29.99 "Hg7 mi
5:54 PM75 °FSunny.13 mph54%29.98 "Hg7 mi
6:54 PM73 °FScattered clouds.12 mph57%29.98 "Hg5 mi
8:54 PM68 °FPassing clouds.5 mph70%29.98 "Hg5 mi
9:54 PM65 °FPartly sunny.5 mph76%29.99 "Hg6 mi
11:54 PM60 °FPassing clouds.3 mph83%30.01 "Hg7 mi
Weather by CustomWeather, © 2014

See weather overviewHow to use our weather pages